STARLINK-32285, 60355

Orbit data source: Space-Track

STARLINK-32285, 60355 is a payload satellite owned by SpaceX/Seattle (US) in LEO that was launched on Sun, 04 Aug 2024 UTC via an FALCON 9 launch vehicle from the Air Force Western Test Range (AFWTR). Payload-class satellites include a variety of spacecraft equipped with specific instruments for various scientific and technological missions. These include communications satellites like Starlink; space stations such as the ISS; scientific satellites like the Hubble; Earth observation satellites from companies like Planet Labs, Umbra, and HawkEye 360; GPS; miniature CubeSats for education and research; and military/defense satellites.

Loading next visibility...
Identifier
60355, 2024-138A
Orbit
LEO
Last TLE update
8 hours ago
Origin
Manufacturer
SpaceX/Seattle
Mission
Operational Commercial Communications
Bus & Motor
STARLINK V2M, Unknown motor
Mass
730 kg wet, ~700 kg dry
Launch date (UTC)
2024-08-04 (11 months ago)
Launch vehicle
FALCON 9
Launch site
Air Force Western Test Range (AFWTR)
Object type
Payload
Rocket body
Debris
Shape & HBR
Box + 2 Pan, 29 m
Radar Cross Section
33.884 m², Large (>1 m²)

Expand to show TLE details & history

TLE from 8 hours ago
0 STARLINK-32285
1 60355U 24138A   25182.04042551 -.00000388  00000-0 -96362-6 0  9999
2 60355  53.1608  38.1623 0001181  94.6051 265.5085 15.30195986 52097
Epoch: 2025-07-01T00:58Z
TLE epoch observation values (Epoch: 2025-07-01T00:58:12.764Z)
Latitude
0.00002°
Longitude
104.26755°
Altitude
476.19 km
Speed
7.629 km/s
True Right ascension
02h 32m 38s
True Declination
0° 00' 00"
Sunlit
Object was in daylight at epoch
Visualization orbit readout
Latitude
52.8866°
Longitude
-157.26815°
Altitude
480.896 km
Speed
7.632 km/s
Apparent Right ascension
08h 58m 32s
Apparent Declination
8° 39' 04"
Sunlit
Object is in daylight
Visualization observer readout
Local Sidereal Time
20:51:47
Azimuth
357.777° N
Elevation
-41.408°
Doppler factor
1
Orbital elements
Apogee altitude
476.293 km
Perigee altitude
474.674 km
Semi-major axis
6,853.62 km
Eccentricity
0.00012
Inclination
53.1608°
RAAN
38.1623°
Arg. of periapsis
94.6051°
True anomaly
Unknown
Mean anomaly
265.5085°
Eccentric anomaly
Unknown
Mean motion
3.82528 °/min
Orbital period
94.11 mins
BSTAR
-9.6362e-7
Loading maneuver chart data...
Loading SW <> Apogee altitude chart data...
Loading historical data...
Loading historical data...
Loading historical data...
Loading historical data...
Loading historical data...
Loading historical data...
Loading historical data...

STARLINK-32285 Visibility forecast

Observer location: undefined°, undefined°

Span
Click to sort rows by Start time (UTC) header in descending order
Start Az.
Max El. time (UTC)
Max El. Az.
Max El.
End time (UTC)
End Az.
6 mins2025-07-01 16:48:32.760Z211.111° SW2025-07-01 16:51:32.760Z149.081° SSE38.123°2025-07-01 16:54:32.760Z61.929° ENE
4 mins2025-07-01 18:28:32.760Z301.276° NW2025-07-01 18:29:32.760Z325.087° NNW21.941°2025-07-01 18:32:32.760Z25.873° NE
5 mins2025-07-01 23:24:32.760Z329.282° NNW2025-07-01 23:26:32.760Z24.734° NE35.442°2025-07-01 23:29:32.760Z105.688° ESE
|